Weather History for Harvey, ND

Change the Weather History Date:

Thursday, November 22, 2012

  Actual Average (KRUG) Record (KRUG)
Temperature  
Mean Temperature 22 °F -  
Max Temperature 32 °F 27 °F 50 °F (1954)
Min Temperature 12 °F 12 °F -14 °F (2013)
Degree Days  
Heating Degree Days 43    
Moisture  
Dew Point 21 °F    
Average Humidity 92    
Maximum Humidity 100    
Minimum Humidity 79    
Precipitation  
Precipitation 0.18 in - - ()
Sea Level Pressure  
Sea Level Pressure 29.99 in    
Wind  
Wind Speed 20 mph (NW)    
Max Wind Speed 26 mph    
Max Gust Speed 33 mph    
Visibility 8 miles    
Events Snow    
Averages and records for this station are not official NWS values.
T = Trace of Precipitation, MM = Missing Value Source: NWS Daily Summary

Daily Weather History Graph

Daily Weather History Graph

Search for Another Location

Airport:

Trip Planner

Search our weather history database for the weather conditions in past years. The results will help you decide how hot, cold, wet, or windy it might be!

Date:

Astronomy

Nov. 22, 2012 Rise Set
Actual Time 7:56 AM CST 4:55 PM CST
Civil Twilight 7:21 AM CST 5:29 PM CST
Nautical Twilight 6:43 AM CST 6:07 PM CST
Astronomical Twilight 6:06 AM CST 6:44 PM CST
Moon 2:01 PM CST (11/22) 1:55 AM CST (11/22)
Length of Visible Light 10h 07m
Length of Day
8h 58m
Waxing Gibbous, 71% of the Moon is Illuminated
Nov 22
Waxing Gibbous
Nov 28
Full
Dec 6
Last Quarter
Dec 13
New
Dec 19
First Quarter

Hourly Weather History & Observations

Time (CST) Temp. Windchill Dew Point Humidity Pressure Visibility Wind Dir Wind Speed Gust Speed Precip Events Conditions
12:15 AM 32.0 °F 18.9 °F 32.0 °F 100% 29.61 in 10.0 mi WNW 24.2 mph 29.9 mph N/A   Scattered Clouds
12:35 AM 32.0 °F 19.5 °F 32.0 °F 100% 29.63 in 4.0 mi WNW 21.9 mph 31.1 mph N/A   Overcast
12:55 AM 32.0 °F 19.8 °F 32.0 °F 100% 29.64 in 3.0 mi NW 20.7 mph - N/A   Overcast
1:15 AM 32.0 °F 21.6 °F 32.0 °F 100% 29.66 in 2.5 mi NW 15.0 mph 25.3 mph N/A   Overcast
1:35 AM 32.0 °F 21.6 °F 32.0 °F 100% 29.68 in 3.0 mi WNW 15.0 mph 21.9 mph N/A   Overcast
1:55 AM 32.0 °F 22.1 °F 32.0 °F 100% 29.69 in 7.0 mi WNW 13.8 mph - N/A   Overcast
2:15 AM 32.0 °F 19.8 °F 32.0 °F 100% 29.70 in 6.0 mi WNW 20.7 mph 26.5 mph N/A   Overcast
2:35 AM 32.0 °F 21.2 °F 32.0 °F 100% 29.70 in 7.0 mi NW 16.1 mph 24.2 mph N/A   Overcast
2:55 AM 32.0 °F 19.5 °F 32.0 °F 100% 29.72 in 7.0 mi NW 21.9 mph 26.5 mph N/A   Overcast
3:15 AM 32.0 °F 19.5 °F 32.0 °F 100% 29.71 in 6.0 mi NW 21.9 mph 27.6 mph N/A   Overcast
3:35 AM 32.0 °F 21.2 °F 32.0 °F 100% 29.73 in 8.0 mi NW 16.1 mph 24.2 mph N/A   Overcast
3:55 AM 32.0 °F 20.5 °F 32.0 °F 100% 29.72 in 7.0 mi NW 18.4 mph - N/A   Overcast
4:15 AM 30.2 °F 17.4 °F 30.2 °F 100% 29.73 in 7.0 mi NW 20.7 mph 26.5 mph N/A   Overcast
4:35 AM 30.2 °F 17.8 °F 30.2 °F 100% 29.73 in 10.0 mi NW 19.6 mph - N/A   Overcast
4:55 AM 30.2 °F 18.9 °F 30.2 °F 100% 29.76 in 10.0 mi NW 16.1 mph 20.7 mph N/A   Overcast
5:15 AM 30.2 °F 18.9 °F 30.2 °F 100% 29.79 in 10.0 mi NW 16.1 mph 21.9 mph N/A   Overcast
5:35 AM 28.4 °F 17.0 °F 28.4 °F 100% 29.78 in 10.0 mi NW 15.0 mph 23.0 mph N/A   Overcast
5:55 AM 28.4 °F 16.6 °F 28.4 °F 100% 29.79 in 10.0 mi NNW 16.1 mph - N/A   Overcast
6:15 AM 28.4 °F 16.6 °F 28.4 °F 100% 29.79 in 10.0 mi NW 16.1 mph - N/A   Overcast
6:35 AM 28.4 °F 17.5 °F 28.4 °F 100% 29.80 in 10.0 mi NNW 13.8 mph 20.7 mph N/A   Overcast
6:55 AM 28.4 °F 17.5 °F 28.4 °F 100% 29.81 in 10.0 mi NW 13.8 mph 20.7 mph N/A   Overcast
7:15 AM 28.4 °F 15.4 °F 28.4 °F 100% 29.82 in 10.0 mi NNW 19.6 mph - N/A   Overcast
7:35 AM 28.4 °F 16.6 °F 28.4 °F 100% 29.82 in 10.0 mi NW 16.1 mph - N/A   Overcast
7:55 AM 28.4 °F 16.2 °F 28.4 °F 100% 29.83 in 10.0 mi NNW 17.3 mph - N/A   Overcast
8:15 AM 28.4 °F 14.7 °F 28.4 °F 100% 29.84 in 10.0 mi NNW 21.9 mph - N/A Snow Light Snow
8:35 AM 26.6 °F 12.0 °F 26.6 °F 100% 29.85 in 7.0 mi NNW 23.0 mph 28.8 mph N/A Snow Light Snow
8:55 AM 26.6 °F 13.1 °F 26.6 °F 100% 29.88 in 3.0 mi NW 19.6 mph - N/A Snow Light Snow
9:15 AM 26.6 °F 13.8 °F 26.6 °F 100% 29.90 in 10.0 mi NW 17.3 mph 24.2 mph N/A   Overcast
9:35 AM 26.6 °F 13.4 °F 24.8 °F 93% 29.92 in 10.0 mi NW 18.4 mph 24.2 mph N/A Snow Light Snow
9:55 AM 24.8 °F 10.0 °F 24.8 °F 100% 29.93 in 3.0 mi NW 21.9 mph 27.6 mph 0.01 in Snow Light Snow
10:15 AM 24.8 °F 11.9 °F 23.0 °F 93% 29.94 in 8.0 mi NW 16.1 mph 23.0 mph N/A Snow Light Snow
10:35 AM 24.8 °F 9.6 °F 23.0 °F 93% 29.93 in 5.0 mi NW 23.0 mph 27.6 mph N/A Snow Light Snow
10:55 AM 24.8 °F 9.0 °F 23.0 °F 93% 29.94 in 7.0 mi NW 25.3 mph 29.9 mph N/A Snow Light Snow
11:15 AM 24.8 °F 9.6 °F 23.0 °F 93% 29.96 in 10.0 mi NW 23.0 mph 26.5 mph N/A   Overcast
11:35 AM 24.8 °F 9.6 °F 21.2 °F 86% 29.97 in 10.0 mi NW 23.0 mph 29.9 mph N/A   Overcast
11:55 AM 23.0 °F 6.6 °F 19.4 °F 86% 29.98 in 10.0 mi NW 25.3 mph 31.1 mph N/A   Overcast
12:15 PM 23.0 °F 6.6 °F 19.4 °F 86% 29.99 in 10.0 mi NW 25.3 mph 31.1 mph N/A   Overcast
12:35 PM 23.0 °F 8.0 °F 19.4 °F 86% 30.00 in 10.0 mi NNW 20.7 mph 27.6 mph N/A   Overcast
12:55 PM 23.0 °F 7.2 °F 19.4 °F 86% 30.01 in 10.0 mi NW 23.0 mph 28.8 mph N/A   Overcast
1:15 PM 24.8 °F 10.7 °F 19.4 °F 80% 30.01 in 10.0 mi NW 19.6 mph 29.9 mph N/A   Overcast
1:35 PM 23.0 °F 6.9 °F 17.6 °F 80% 30.01 in 10.0 mi NW 24.2 mph 31.1 mph N/A   Overcast
1:55 PM 23.0 °F 6.9 °F 17.6 °F 80% 30.02 in 10.0 mi NW 24.2 mph 29.9 mph N/A   Overcast
2:15 PM 23.0 °F 8.0 °F 17.6 °F 80% 30.04 in 10.0 mi NW 20.7 mph 26.5 mph N/A   Overcast
2:35 PM 23.0 °F 6.3 °F 17.6 °F 80% 30.05 in 10.0 mi NNW 26.5 mph 29.9 mph N/A   Overcast
2:55 PM 23.0 °F 7.6 °F 17.6 °F 80% 30.06 in 10.0 mi NNW 21.9 mph 28.8 mph N/A   Overcast
3:15 PM 21.2 °F 5.6 °F 15.8 °F 80% 30.07 in 10.0 mi NW 20.7 mph 29.9 mph N/A Snow Light Snow
3:35 PM 19.4 °F 2.1 °F 15.8 °F 86% 30.09 in 10.0 mi NW 24.2 mph 33.4 mph N/A Snow Light Snow
3:55 PM 19.4 °F 2.8 °F 15.8 °F 86% 30.11 in 10.0 mi NW 21.9 mph 29.9 mph N/A Snow Light Snow
4:15 PM 19.4 °F 2.1 °F 15.8 °F 86% 30.13 in 8.0 mi NW 24.2 mph - N/A Snow Light Snow
4:35 PM 19.4 °F 3.2 °F 15.8 °F 86% 30.15 in 5.0 mi NNW 20.7 mph 29.9 mph 0.01 in Snow Light Snow
4:55 PM 19.4 °F 2.8 °F 15.8 °F 86% 30.16 in 4.0 mi NW 21.9 mph 28.8 mph 0.02 in Snow Light Snow
5:15 PM 17.6 °F 0.9 °F 15.8 °F 93% 30.18 in 3.0 mi NNW 20.7 mph 29.9 mph 0.02 in Snow Light Snow
5:35 PM 17.6 °F -0.6 °F 14.0 °F 86% 30.19 in 7.0 mi NNW 25.3 mph 32.2 mph 0.03 in Snow Light Snow
5:55 PM 17.6 °F 1.3 °F 14.0 °F 86% 30.21 in 4.0 mi NNW 19.6 mph 32.2 mph 0.04 in Snow Light Snow
6:15 PM 17.6 °F 0.9 °F 14.0 °F 86% 30.22 in 2.0 mi NW 20.7 mph 27.6 mph 0.01 in Snow Light Snow
6:35 PM 17.6 °F 0.1 °F 14.0 °F 86% 30.23 in 2.5 mi NNW 23.0 mph 28.8 mph 0.03 in Snow Light Snow
6:55 PM 17.6 °F -0.3 °F 15.8 °F 93% 30.24 in 1.8 mi NW 24.2 mph 29.9 mph 0.05 in Snow Light Snow
7:15 PM 17.6 °F 0.5 °F 15.8 °F 93% 30.25 in 2.0 mi NNW 21.9 mph 28.8 mph 0.01 in Snow Light Snow
7:35 PM 17.6 °F 0.9 °F 15.8 °F 93% 30.26 in 2.5 mi NW 20.7 mph 25.3 mph 0.03 in Snow Light Snow
7:55 PM 15.8 °F -2.3 °F 14.0 °F 93% 30.27 in 3.0 mi NNW 23.0 mph 28.8 mph 0.04 in Snow Light Snow
8:15 PM 15.8 °F -1.1 °F 14.0 °F 93% 30.28 in 3.0 mi NW 19.6 mph 25.3 mph 0.01 in Snow Light Snow
8:35 PM 15.8 °F -1.9 °F 14.0 °F 93% 30.29 in 3.0 mi NW 21.9 mph 29.9 mph 0.02 in Snow Light Snow
8:55 PM 15.8 °F -2.7 °F 14.0 °F 93% 30.30 in 10.0 mi NNW 24.2 mph 29.9 mph 0.02 in   Overcast
9:15 PM 15.8 °F -3.4 °F 12.2 °F 86% 30.31 in 10.0 mi NNW 26.5 mph 32.2 mph N/A Snow Light Snow
9:35 PM 15.8 °F -2.7 °F 10.4 °F 79% 30.32 in 10.0 mi NW 24.2 mph 28.8 mph N/A   Overcast
9:55 PM 14.0 °F -4.3 °F 10.4 °F 86% 30.33 in 10.0 mi NW 21.9 mph 26.5 mph N/A   Scattered Clouds
10:15 PM 14.0 °F -4.3 °F 10.4 °F 86% 30.34 in 10.0 mi NW 21.9 mph 29.9 mph N/A   Clear
10:35 PM 14.0 °F -5.1 °F 10.4 °F 86% 30.34 in 10.0 mi NW 24.2 mph 28.8 mph N/A   Clear
10:55 PM 14.0 °F -4.7 °F 8.6 °F 79% 30.35 in 10.0 mi NNW 23.0 mph 28.8 mph N/A   Clear
11:15 PM 14.0 °F -3.0 °F 8.6 °F 79% 30.36 in 10.0 mi NNW 18.4 mph - N/A   Clear
11:35 PM 12.2 °F -7.5 °F 6.8 °F 79% 30.37 in 10.0 mi NW 24.2 mph 31.1 mph N/A   Clear
11:55 PM 12.2 °F -7.5 °F 6.8 °F 79% 30.37 in 10.0 mi NW 24.2 mph 32.2 mph N/A   Clear